Location: Belfast
(54.5830°N, 5.9330°W)
Time: 14:07:18
(UTC+01:00)

ISS - Pass Details

Date: 27 May 2017
Orbit: 402 x 408 km, 51.6° (Epoch: 26 May)

Event Time Altitude Azimuth Distance (km) Brightness Sun altitude
Rises 03:06:36 0° 276° (W) 2,333 -0.2 -10.8°
Reaches altitude 10° 03:09:05 10° 257° (WSW) 1,468 -1.4 -10.6°
Maximum altitude 03:11:27 19° 211° (SSW) 1,051 -2.4 -10.5°
Drops below altitude 10° 03:13:50 10° 164° (SSE) 1,459 -1.4 -10.3°
Sets 03:16:17 0° 146° (SE) 2,314 -0.3 -10.2°
